TimeCDT,TemperatureF,Dew PointF,Humidity,Sea Level PressureIn,VisibilityMPH,Wind Direction,Wind SpeedMPH,Gust SpeedMPH,PrecipitationIn,Events,Conditions,WindDirDegrees,DateUTC
12:53 AM,42.1,30.0,62,29.88,10.0,Calm,Calm,-,N/A,,Partly Cloudy,0,2013-04-12 05:53:00
1:53 AM,42.1,30.9,65,29.88,10.0,NNW,3.5,-,N/A,,Mostly Cloudy,330,2013-04-12 06:53:00
2:53 AM,37.0,30.0,76,29.90,10.0,WSW,5.8,-,N/A,,Clear,250,2013-04-12 07:53:00
3:53 AM,35.1,30.0,82,29.91,10.0,Calm,Calm,-,N/A,,Clear,0,2013-04-12 08:53:00
4:53 AM,36.0,30.0,79,29.92,10.0,Calm,Calm,-,N/A,,Clear,0,2013-04-12 09:53:00
5:53 AM,34.0,28.0,79,29.93,10.0,Calm,Calm,-,N/A,,Clear,0,2013-04-12 10:53:00
6:53 AM,34.0,28.9,82,29.94,10.0,Calm,Calm,-,N/A,,Clear,0,2013-04-12 11:53:00
7:53 AM,36.0,32.0,86,29.97,10.0,SW,3.5,-,N/A,,Partly Cloudy,220,2013-04-12 12:53:00
8:53 AM,39.0,32.0,76,29.98,10.0,Calm,Calm,-,N/A,,Mostly Cloudy,0,2013-04-12 13:53:00
9:53 AM,43.0,33.1,68,30.02,10.0,Calm,Calm,-,N/A,,Mostly Cloudy,0,2013-04-12 14:53:00
10:53 AM,51.1,33.1,50,30.02,10.0,North,4.6,-,N/A,,Partly Cloudy,360,2013-04-12 15:53:00
12:53 PM,57.0,32.0,39,29.99,10.0,NE,6.9,-,N/A,,Clear,50,2013-04-12 17:53:00
1:53 PM,59.0,33.1,38,29.97,10.0,NE,8.1,-,N/A,,Clear,40,2013-04-12 18:53:00
2:53 PM,61.0,33.1,35,29.95,10.0,SSE,9.2,-,N/A,,Clear,150,2013-04-12 19:53:00
3:53 PM,62.1,33.1,34,29.92,10.0,ESE,6.9,-,N/A,,Clear,110,2013-04-12 20:53:00
4:53 PM,63.0,32.0,31,29.90,10.0,ENE,5.8,-,N/A,,Clear,70,2013-04-12 21:53:00
5:53 PM,63.0,30.9,30,29.90,10.0,South,4.6,-,N/A,,Clear,170,2013-04-12 22:53:00
6:53 PM,62.1,33.1,34,29.90,10.0,SSE,8.1,-,N/A,,Clear,150,2013-04-12 23:53:00
7:53 PM,57.0,35.1,44,29.89,10.0,SE,11.5,-,N/A,,Clear,140,2013-04-13 00:53:00
8:53 PM,52.0,37.9,59,29.91,10.0,SE,11.5,-,N/A,,Clear,140,2013-04-13 01:53:00
9:53 PM,48.9,39.0,69,29.93,10.0,SE,11.5,-,N/A,,Clear,140,2013-04-13 02:53:00
10:53 PM,46.9,39.0,74,29.95,10.0,ESE,11.5,-,N/A,,Clear,120,2013-04-13 03:53:00
11:53 PM,46.9,39.0,74,30.00,10.0,NNE,10.4,-,N/A,,Clear,20,2013-04-13 04:53:00